Overview Statistics Trail Chart Weather Telemetry Raw packets
 

This is the latest recevied weather packets stored in our database for station/object SP5MRF. If no packets are shown the sender has not sent any weather packets the latest 10 day(s).

<< 32 33 34 35 36 37 38 >>
Time Temp. Humidity Pressure Rain* Wind** Luminosity Snow
1788267411 20° C 64% 1011.6 hPa 0 mm - - -
1788266931 20° C 65% 1011.4 hPa 0 mm - - -
1788265971 20.56° C 65% 1011.4 hPa 0 mm - - -
1788265492 20.56° C 64% 1011.4 hPa 0 mm - - -
1788265011 20.56° C 62% 1011.4 hPa 0 mm - - -
1788264531 21.11° C 61% 1011.4 hPa 0 mm - - -
1788264051 21.67° C 62% 1011.2 hPa 0 mm - - -
1788263571 21.11° C 62% 1011 hPa 0 mm - - -
1788263092 21.67° C 61% 1011 hPa 0 mm - - -
1788262611 22.22° C 61% 1011 hPa 0 mm - - -
1788262133 22.22° C 63% 1011 hPa 0 mm - - -
1788261652 21.11° C 66% 1011.1 hPa 0 mm - - -
1788261172 20.56° C 66% 1011.1 hPa 0 mm - - -
1788260693 20.56° C 67% 1011 hPa 0 mm - - -
1788260212 20° C 68% 1011.1 hPa 0 mm - - -
1788259732 20° C 67% 1011 hPa 0 mm - - -
1788259252 20° C 66% 1011.2 hPa 0 mm - - -
1788258293 20.56° C 64% 1011 hPa 0 mm - - -
1788257812 21.11° C 63% 1011.2 hPa 0 mm - - -
1788256852 21.67° C 63% 1010.9 hPa 0 mm - - -
1788256372 21.67° C 62% 1011 hPa 0 mm - - -
1788255892 21.67° C 65% 1011 hPa 0 mm - - -
1788255412 21.11° C 65% 1011 hPa 0 mm - - -
1788254933 21.11° C 66% 1010.9 hPa 0 mm - - -
1788254452 21.11° C 67% 1010.9 hPa 0 mm - - -

* Rain latest hour (hover to see other rain measurements)
** Current wind speed in m/s (hover to see current wind gust speed)